Location: Unspecified
(34.4950°S, 58.5160°W)
Time: 15:53:32
(UTC+00:00)

Cosmos 1655 Rocket - Pass Details

Date: 03 July 2022
Orbit: 971 x 1005 km, 83.0° (Epoch: 11 August)

Event Time Altitude Azimuth Distance (km) Brightness Sun altitude
Rises 22:23:52 0° 17° (NNE) 3,710 7.0 -17.7°
Reaches altitude 10° 22:26:32 10° 24° (NNE) 2,772 6.3 -18.3°
Maximum altitude 22:32:24 40° 91° (E) 1,453 4.4 -19.4°
Enters shadow 22:35:05 28° 138° (SE) 1,822 5.0 -20.0°
